Погода в Кургане

Хотите узнать прогноз погоды в Кургане? Тогда Вам сюда: Погода в Кургане

Поиск расширенной информации на нашем сайте:

Полезная информация:

Новости сайта



02.01.2020
Опубликован Долгосрочный прогноз погоды по городам России и ближнего зарубежья на январь 2020 года.
Карты: Прогноз на январь и февраль 2020 года, Сравнение прогнозируемой аномалии приземной температуры воздуха на январь 2020 года по разным моделям.




Погода в Кургане - сегодня

Время (UTC), дата Ветер
(°,м/с) 
Видим.   Явления Облачность Т
(°С)
Тd
(°С)
f(%) Тe
(°С)
Pmin
(гПа)
dP
(гПа)
Po
(мм)
O2
(г/м3)
Тmin Tmax R s Состояние
почвы
12 16.04.21 360 (С) 5-10{12}  50000 м    10/0 средняя, верхняя 
[Ac trans|Ci fib]
+11.7 -6.8 27 +11  1024.1  0.8  761  295           
15 16.04.21 020 (С) 2{10}  10 км    6/0 средняя, верхняя 
[Ac trans|Ci fib]
+6.4 -7.6 36 +6  1025.2  0.9  762  301    +12.1       
18 16.04.21 020 (С) 10 км    ясно 
+0.9 -6.7 57 +2  1026.5  1.1  763  307           
21 16.04.21 тихо ()   10 км    ясно 
-1.7 -6.9 68 -2  1027.6  764  310           
00 17.04.21 тихо ()   10 км    3/0 верхняя 
[Ci fib]
-3.8 -6.9 79 -4  1028.3  0.5  764  313           
03 17.04.21 тихо ()   20000 м    3/0 верхняя 
[Ci fib]
+1.8 -4.1 65 +2  1027.8  -0.3  764  306  -4        сухая 
06 17.04.21 230 (ЮЗ) 20000 м    ясно 
+9.9 -8.6 26 +10  1026  -1.5  763  297           
09 17.04.21 220 (ЮЗ) 20000 м    ясно 
+11.8 -9.6 21 +12  1023.8  -2.2  761  295           
12 17.04.21 220 (ЮЗ) 3{10}  20000 м    ясно 
+13.8 -7.5 22 +14  1021  -2.7  759  292           
15 17.04.21 250 (З) 10 км    3/0 верхняя 
[Ci fib]
+10.6 -4.3 35 +12  1019.5  -1.5  758  294    +13.8       
18 17.04.21 200 (Ю) 10 км    ясно 
+5.4 -3.3 53 +5  1018.7  -1  757  300           
21 17.04.21 170 (Ю) 10 км    ясно 
+2.7 -1.7 73 +3  1017.3  -1.5  756  302           
00 18.04.21 200 (Ю) 10 км    ясно 
+1.3 -2.2 77 +1  1015.4  -1.9  755  303           
03 18.04.21 270 (З) 50000 м    ясно 
+6.3 -4.5 46 +7  1014.3  -0.9  754  297  +0.7        сухая 
06 18.04.21 290 (З) 5-11{11}  50000 м    6/4 600 м верхняя 
[Cu hum|Ci fib]
+13.1 -6.7 25 +12  1012.8  -1.3  753  290           
09 18.04.21 350 (С) 7-14{14}  20000 м    8/6 600 м кучево-дожд., верхняя 
[Cb cap|Ci fib]
+8.9 -8 29 +7  1017.4  4.3  756  296           
12 18.04.21 010 (С) 7-13{17}  50000 м    6/5 600 м верхняя 
[Sc diur, vesp|Ci fib]
+3.2 -11.9 32 1023.4  5.8  761  304           
15 18.04.21 020 (С) 5{15}  10 км    ясно 
+0.2 -18.5 23 -3  1026.2  2.7  763  308    +13.2       
18 18.04.21 020 (С) 10 км    ясно 
-3.3 -14.9 40 -5  1028.8  2.4  764  313           
21 18.04.21 020 (С) 10 км    ясно 
-5.8 -14.9 49 -9  1031.1  2.1  766  317           
00 19.04.21 020 (С) 10 км    ясно 
-9.1 -15.8 58 -9  1032.9  1.7  767  321           
03 19.04.21 030 (СВ) 50000 м    ясно 
-5 -17 38 -8  1034.2  1.4  768  317  -9.8        замёрзшая 
06 19.04.21 030 (СВ) 20000 м    ясно 
-1 -17.6 27 -3  1034.1  768  312           
09 19.04.21 070 (В) 2{10}  20000 м    3/3 1000 м 
[Cu hum]
+1.1 -16.8 25 1032.7  -1.2  767  309           
12 19.04.21 330 (СЗ) 20000 м    3/3 1000 м 
[Cu hum]
+3.7 -16.4 21 +2  1031.5  -1.2  767  306           
Время (UTC), дата Ветер
(°,м/с) 
Видим.   Явления Облачность Т
(°С)
Тd
(°С)
f(%) Тe
(°С)
Pmin
(гПа)
dP
(гПа)
Po
(мм)
O2
(г/м3)
Тmin Tmax R s Состояние
почвы

Для получения пояснительной информации подведите курсор к названию столбца.

ПОГОДА в Кургане - архив

Всё, что Вы хотите узнать о погоде в Кургане - удобно и подробно!

Выберите нужную дату (начиная с 1 января 2019* года) и нажмите кнопку "Найти".
Будут отображены архивные сводки погоды по пункту Курган, начиная с указанной даты.


Отображать данные в формате CSV (для использования в таблицах Excel)


Внимание! Наш архив погоды предназначен исключительно для личного некоммерческого использования в познавательных целях. Если Вам необходимы официальные справки о состоянии погоды (для производственных, юридических, коммерческих и т.п. целей), обращайтесь в органы Росгидромета.

*Примечание: данная дата относится к архиву по метеостанциям СССР (Россия, СНГ, Балтия).
Архив по метеостанциям Зарубежной Европы и Азии (кроме Китая) хранится 10 дней, по другим регионам земного шара (Китай, Африка, Америка, Австралия, Океания) - 1 день.

Курган - район местоположения метеостанции


Название, широта, долгота, высота метеостанции:
Курган 55.5°ш. 65.4°д. 74 м над ур. моря [Российская Федерация]

Дополнительная информация

В oтличие oт бoльшинства пoгoдных сайтoв мы публикуем пoдрoбную метеoинфoрмацию в детальнoм прoфессиoнальнoм фoрмате.

Характеристики температуры и влажнoсти вoздуха измеряются на высoте 2 м в тени вдали oт зданий и деревьев.
Скoрoсть ветра измеряется на высoте 10 м (на урoвне рoста челoвека скoрoсть ветра ниже в 1.5-2 раза). Если метеoстанция нахoдится в гoрoде или в лесу, тo скoрoсть ветра занижена на 2-4 м/с пo сравнению с oткрытым местoм. Скoрoсть ветра над акватoриями крупных рек и oзёр, а также на вершинах хoлмoв на 2-5 м/с выше, чем в oбычных услoвиях.
Атмoсфернoе давление в разных тoчках местнoсти мoжет значительнo oтличаться oт давления на метеoстанции, в зависимoсти oт услoвий рельефа (при пoдъёме на 10 м давление пoнижается примернo на 1 мм рт.ст.).